Regional Weather Roundup
Issued by NWS

Home | Current Version | Previous Version | Text Only | Print | Product List | Glossary On
Versions: 1 2 3 4 5 6 7 8 9 10 11 12 13 14 15 16 17 18 19 20 21 22 23 24 25 26 27 28 29 30 31 32 33 34 35 36 37 38 39 40 41 42 43 44 45 46 47 48 49 50
740
ASCA44 KEWX 251420
RWRMX

LATIN AMERICA AND CARIBBEAN REGIONAL WEATHER ROUNDUP
NATIONAL WEATHER SERVICE AUSTIN/SAN ANTONIO TX
900 AM CDT MON JUL 25 2016

NOTE: "FAIR" INDICATED FEW OR NO CLOUDS BELOW 12,000 FEET WITH NO
SIGNIFICANT WEATHER AND/OR OBSTRUCTIONS TO VISIBILITY.

BAJA CALIFORNIA

CITY           SKY/WX    TMP DP  RH WIND       PRES   REMARKS
LORETO         PTSUNNY   84  73  70 CALM      29.88R HX  91
LA PAZ         MOSUNNY   81  72  74 CALM      29.93
MEXICALI       PTSUNNY   84  75  74 SE9       29.87  HX  92
S.J. DEL CABO  PTSUNNY   81  72  74 E6        29.93R
TIJUANA        CLOUDY    70  63  78 NW5       29.98R

NORTHWESTERN MEXICO

CITY           SKY/WX    TMP DP  RH WIND       PRES   REMARKS
CULIACAN       PTSUNNY   75  73  94 NE5       29.92
DURANGO        MOSUNNY   61  55  82 N7        30.27
GUAYMAS        CLOUDY    81  79  94 CALM      29.88
HERMOSILLO     CLOUDY    79  75  89 E6        29.95S
CD. JUAREZ     MOSUNNY   81  50  34 NW14      30.06
OBREGON        PTSUNNY   81  75  83 NW8       29.90

NORTHEASTERN MEXICO

CITY           SKY/WX    TMP DP  RH WIND       PRES   REMARKS
CHIHUAHUA      PTSUNNY   70  61  73 SE3       30.18
MATAMOROS      PTSUNNY   86  77  74 S10       29.94  HX  97
MONCLOVA       SUNNY     88  59  37 CALM      29.99
MONTERREY      PTSUNNY   81  70  69 SE6       29.96R
NUEVO LAREDO   MOSUNNY   82  75  78 SE10      29.93
PIEDRAS NEGRAS SUNNY     82  70  65 SE7       29.95R
REYNOSA        MOSUNNY   81  73  78 SE9       29.94  FOG
SALTILLO       SUNNY     77  64  65 CALM      30.21R
TORREON        SUNNY     82  55  39 CALM      30.07R
CD. VICTORIA   SUNNY     79  72  78 S7G20     29.95

WESTERN MEXICO

CITY           SKY/WX    TMP DP  RH WIND       PRES   REMARKS
AGUASCALIENTES MOSUNNY   61  57  88 CALM      30.28
COLIMA         PTSUNNY   73  66  78 N6        30.03R
DEL BAJIO      MOSUNNY   61  61 100 NW2       30.32R FOG
GUADALAJARA    CLOUDY    64  59  82 CALM      30.20
MANZANILLO     MOSUNNY   79  72  78 N7        29.84R
MAZATLAN       PTSUNNY   79  73  83 NE3       29.88S
P. VALLARTA    CLOUDY    77  75  94 NE5       29.89R
URUAPAN        PTSUNNY   61  59  94 CALM      30.18R
ZACATECAS      SUNNY     55  52  88 CALM      30.31

CENTRAL MEXICO

CITY           SKY/WX    TMP DP  RH WIND       PRES   REMARKS
CUERNAVACA     PTSUNNY   70  61  73 CALM      30.14R
MEXICO CITY    MOSUNNY   63  54  72 W6        30.35R
MORELIA        MOSUNNY   61  57  88 CALM      30.25
POZA RICA      MOSUNNY   79  73  83 CALM      29.97R
PUEBLA         MOSUNNY   57  52  82 N7        30.33
QUERETARO      PTSUNNY   63  57  82 E12       30.32R
S. LUIS POTOSI MOSUNNY   61  54  77 CALM      30.27R
TAMPICO        MOSUNNY   82  77  83 CALM      29.94R HX  91
TOLUCA         FOG       52  52 100 CALM      30.43R VSB 1

SOUTHERN MEXICO

CITY           SKY/WX    TMP DP  RH WIND       PRES   REMARKS
ACAPULCO       PTSUNNY   79  75  89 SE3       29.92R
B. DE HUATULCO PTSUNNY   77  70  78 CALM      29.97
OAXACA         CLOUDY    64  63  94 CALM      30.25R
P. ESCONDIDO   CLOUDY    77  73  88 NE7       30.00R
VERACRUZ       PTSUNNY   82  77  83 W3        29.91R HX  91
ZIHUATANEJO    PTSUNNY   77  72  83 CALM      29.89R

YUCATAN PENINSULA

CITY           SKY/WX    TMP DP  RH WIND       PRES   REMARKS
CAMPECHE       MOSUNNY   81  79  94 E6        29.93R
CANCUN         PTSUNNY   86  77  74 E13       30.00R HX  97
CHETUMAL       PTSUNNY   84  79  84 E12       29.97  HX  96
CD. DEL CARMEN PTSUNNY   84  75  74 SE16      29.94  HX  92
COZUMEL        MOSUNNY   82  77  83 E15       30.00R HX  91
MERIDA         MOSUNNY   82  75  78 E14       29.99R
MINATITLAN     CLOUDY    77  68  73 CALM      29.87
TAPACHULA      MOSUNNY   82  75  78 CALM      29.85S
TUX. GUTIERREZ PTSUNNY   72  68  88 NW3       30.01F FOG
VILLAHERMOSA   MOSUNNY   79  73  83 CALM      29.95R

CENTRAL AMERICA

CITY           SKY/WX    TMP DP  RH WIND       PRES   REMARKS
BELIZE CITY    MOSUNNY   86  79  79 E10       29.98S HX  99
MANAGUA        MOSUNNY   82  72  69 E9        29.89R

CARIBBEAN

CITY           SKY/WX    TMP DP  RH WIND       PRES   REMARKS
ARUBA          MOSUNNY   88  75  66 SE18      29.92S HX  97
KINGSTON       MOSUNNY   86  75  70 SE9       29.97S HX  95
NASSAU         MOSUNNY   91  66  43 E8        30.10  HX  94
SAN JUAN       MOSUNNY   86  75  70 E12       30.03S HX  95
SANTO DOMINGO  MOSUNNY   82  75  78 E7        30.00S
ST. CROIX      MOSUNNY   88  75  66 E14       30.03R HX  97
ST. KITTS      MOSUNNY   86  75  70 E16       30.00S HX  95
ST. MAARTEN    PTSUNNY   84  75  74 E16       30.03R HX  92

$$





USA.gov is the U.S. government's official web portal to all federal, state and local government web resources and services.